TimeCAT,TemperatureF,Dew PointF,Humidity,Sea Level PressureIn,VisibilityMPH,Wind Direction,Wind SpeedMPH,Gust SpeedMPH,PrecipitationIn,Events,Conditions,WindDirDegrees,DateUTC
12:00 AM,71.6,48.2,43,30.01,-9999.0,East,9.2,-,N/A,,Clear,90,2012-10-15 22:00:00
1:00 AM,71.6,48.2,43,30.06,6.2,West,9.2,-,N/A,Rain-Thunderstorm,Light Thunderstorms and Rain,260,2012-10-15 23:00:00
2:00 AM,64,59,77,,6,South,15.0,,,Rain-Thunderstorm,Thunderstorms and Rain,190,2012-10-16 00:00:00
2:00 AM,64.4,59.0,83,30.12,6.2,South,15.0,-,N/A,Rain-Thunderstorm,Light Thunderstorms and Rain,190,2012-10-16 00:00:00
3:00 AM,62.6,59.0,88,30.06,6.2,ESE,12.7,-,N/A,Thunderstorm,Thunderstorm,110,2012-10-16 01:00:00
4:00 AM,62.6,60.8,94,30.04,6.2,East,11.5,-,N/A,Thunderstorm,Thunderstorm,80,2012-10-16 02:00:00
5:00 AM,62.6,59.0,88,30.04,6.2,East,10.4,-,N/A,Thunderstorm,Thunderstorm,100,2012-10-16 03:00:00
6:00 AM,62.6,59.0,88,30.06,6.2,SE,12.7,-,N/A,,Mostly Cloudy,130,2012-10-16 04:00:00
7:00 AM,64.4,57.2,77,30.09,-9999.0,ENE,9.2,-,N/A,,Clear,60,2012-10-16 05:00:00
8:00 AM,68.0,59.0,73,30.09,-9999.0,ENE,11.5,-,N/A,,Clear,60,2012-10-16 06:00:00
8:22 AM,68.0,59.0,73,30.09,6.2,NE,9.2,-,N/A,Rain-Thunderstorm,Light Thunderstorms and Rain,50,2012-10-16 06:22:00
9:00 AM,68.0,59.0,73,30.09,6.2,NE,9.2,-,N/A,Thunderstorm,Thunderstorm,40,2012-10-16 07:00:00
10:00 AM,71.6,60.8,69,30.09,6.2,NNE,11.5,-,N/A,Thunderstorm,Thunderstorm,30,2012-10-16 08:00:00
11:00 AM,80.6,59.0,48,30.06,-9999.0,NNE,11.5,-,N/A,,Clear,30,2012-10-16 09:00:00
12:00 PM,82.4,55.4,39,30.04,-9999.0,NNE,13.8,-,N/A,,Clear,20,2012-10-16 10:00:00
1:00 PM,86.0,55.4,35,30.01,6.2,North,12.7,-,N/A,,Scattered Clouds,360,2012-10-16 11:00:00
2:00 PM,89,52,19,,6,North,9.2,,,,Scattered Clouds,10,2012-10-16 12:00:00
2:00 PM,89.6,51.8,27,29.95,6.2,North,9.2,-,N/A,,Scattered Clouds,10,2012-10-16 12:00:00
3:00 PM,91.4,50.0,24,29.95,6.2,NNE,9.2,-,N/A,,Scattered Clouds,20,2012-10-16 13:00:00
4:00 PM,91.4,50.0,24,29.92,6.2,North,5.8,-,N/A,,Scattered Clouds,360,2012-10-16 14:00:00
5:00 PM,91.4,48.2,23,29.89,-9999.0,NNW,8.1,-,N/A,,Clear,330,2012-10-16 15:00:00
6:00 PM,87.8,48.2,25,29.89,6.2,NNW,4.6,-,N/A,,Scattered Clouds,340,2012-10-16 16:00:00
7:00 PM,82.4,46.4,28,29.95,6.2,NNW,12.7,-,N/A,Thunderstorm,Thunderstorm,340,2012-10-16 17:00:00
8:00 PM,67,58,65,,4,South,20.7,,,Rain-Thunderstorm,Thunderstorms and Rain,190,2012-10-16 18:00:00
8:00 PM,66.2,57.2,73,30.01,3.7,South,20.7,-,N/A,Rain-Thunderstorm,Thunderstorms and Rain,190,2012-10-16 18:00:00
9:00 PM,69.8,57.2,64,29.95,6.2,ESE,16.1,-,N/A,,Mostly Cloudy,120,2012-10-16 19:00:00
10:00 PM,69.8,59.0,68,30.04,6.2,WNW,8.1,-,N/A,Thunderstorm,Thunderstorm,290,2012-10-16 20:00:00
11:00 PM,68.0,59.0,73,29.98,6.2,North,4.6,-,N/A,Thunderstorm,Thunderstorm,360,2012-10-16 21:00:00